Lexington, NE

7:11 PM CST on February 27, 2017 (GMT -0600)
Kelly

Weather History for KLXN - December, 2012

Change the Weather History Date:

Wednesday, December 5, 2012

  Actual Average Record
Temperature  
Mean Temperature 44 °F -  
Max Temperature 61 °F 42 °F 61 °F (2012)
Min Temperature 26 °F 19 °F -5 °F (2005)
Degree Days  
Heating Degree Days 22    
Moisture  
Dew Point 21 °F    
Average Humidity 36    
Maximum Humidity 61    
Minimum Humidity 26    
Precipitation  
Precipitation 0.00 in - - ()
Sea Level Pressure  
Sea Level Pressure 29.97 in    
Wind  
Wind Speed 9 mph (South)    
Max Wind Speed 22 mph    
Max Gust Speed 29 mph    
Visibility 10 miles    
Events      
Averages and records for this station are not official NWS values.
T = Trace of Precipitation, MM = Missing Value Source: NWS Daily Summary

Daily Weather History Graph

Daily Weather History Graph

Search for Another Location

Airport or City:

Trip Planner

Search our weather history database for the weather conditions in past years. The results will help you decide how hot, cold, wet, or windy it might be!

Date:

Astronomy

Dec. 05, 2012 Rise Set
Actual Time 7:48 AM CST 5:11 PM CST
Civil Twilight 7:17 AM CST 5:42 PM CST
Nautical Twilight 6:43 AM CST 6:16 PM CST
Astronomical Twilight 6:10 AM CST 6:49 PM CST
Moon No Moon Rise 12:11 PM CST (12/5)
Length of Visible Light 10h 24m
Length of Day
9h 22m
Waning Gibbous, 59% of the Moon is Illuminated
Dec 5
Waning Gibbous
Dec 6
Last Quarter
Dec 13
New
Dec 19
First Quarter
Dec 28
Full

Hourly Weather History & Observations

Time (CST) Temp. Windchill Dew Point Humidity Pressure Visibility Wind Dir Wind Speed Gust Speed Precip Events Conditions
12:15 AM 35.4 °F 32.6 °F 14.5 °F 42% 30.20 in 10.0 mi SSE 3.5 mph - N/A   Clear
12:35 AM 26.8 °F 21.4 °F 13.8 °F 58% 30.20 in 10.0 mi SE 4.6 mph - N/A   Clear
12:55 AM 26.2 °F 20.7 °F 14.4 °F 61% 30.20 in 10.0 mi East 4.6 mph - N/A   Clear
1:15 AM 26.8 °F 21.4 °F 14.0 °F 59% 30.18 in 10.0 mi SE 4.6 mph - N/A   Clear
1:55 AM 31.3 °F 25.6 °F 15.8 °F 53% 30.18 in 10.0 mi SSE 5.8 mph - N/A   Clear
2:15 AM 28.6 °F 22.4 °F 15.8 °F 59% 30.18 in 10.0 mi SE 5.8 mph - N/A   Clear
2:35 AM 28.4 °F 24.6 °F 15.8 °F 59% 30.17 in 10.0 mi ESE 3.5 mph - N/A   Clear
2:55 AM 27.7 °F 22.4 °F 15.4 °F 60% 30.18 in 10.0 mi ESE 4.6 mph - N/A   Clear
3:15 AM 28.0 °F 21.7 °F 14.9 °F 58% 30.17 in 10.0 mi East 5.8 mph - N/A   Clear
3:35 AM 27.0 °F - 14.9 °F 60% 30.17 in 10.0 mi Calm Calm - N/A   Clear
3:55 AM 26.8 °F - 14.9 °F 61% 30.16 in 10.0 mi Calm Calm - N/A   Clear
4:15 AM 38.8 °F 32.1 °F 17.1 °F 41% 30.15 in 10.0 mi South 10.4 mph - N/A   Clear
4:35 AM 39.2 °F 32.5 °F 16.0 °F 39% 30.13 in 10.0 mi South 10.4 mph - N/A   Clear
4:55 AM 38.3 °F 31.9 °F 15.8 °F 40% 30.13 in 10.0 mi South 9.2 mph - N/A   Clear
5:15 AM 38.3 °F 31.9 °F 15.4 °F 39% 30.13 in 10.0 mi SSE 9.2 mph - N/A   Clear
5:35 AM 37.9 °F 32.7 °F 15.4 °F 40% 30.12 in 10.0 mi South 6.9 mph - N/A   Clear
5:55 AM 38.3 °F 35.9 °F 15.1 °F 39% 30.12 in 10.0 mi SSE 3.5 mph - N/A   Clear
6:15 AM 38.5 °F 33.4 °F 15.4 °F 39% 30.11 in 10.0 mi South 6.9 mph - N/A   Clear
6:35 AM 39.2 °F 32.5 °F 14.9 °F 37% 30.10 in 10.0 mi South 10.4 mph - N/A   Clear
6:55 AM 39.6 °F 33.0 °F 14.9 °F 37% 30.10 in 10.0 mi South 10.4 mph - N/A   Clear
8:35 AM 40.5 °F 35.8 °F 15.8 °F 37% 30.07 in 10.0 mi South 6.9 mph - N/A   Clear
8:55 AM 41.2 °F 37.3 °F 16.3 °F 37% 30.06 in 10.0 mi South 5.8 mph - N/A   Clear
9:15 AM 41.9 °F 35.9 °F 17.4 °F 37% 30.06 in 10.0 mi South 10.4 mph 16.1 mph N/A   Clear
9:35 AM 42.8 °F 37.0 °F 18.1 °F 37% 30.06 in 10.0 mi South 10.4 mph - N/A   Clear
9:55 AM 43.5 °F 37.1 °F 18.5 °F 37% 30.04 in 10.0 mi South 12.7 mph 19.6 mph N/A   Clear
10:15 AM 45.9 °F 40.4 °F 19.4 °F 35% 30.04 in 10.0 mi South 11.5 mph - N/A   Clear
10:35 AM 47.5 °F - 20.3 °F 34% 30.04 in 10.0 mi South 16.1 mph - N/A   Clear
10:55 AM 48.2 °F - 21.2 °F 34% 30.02 in 10.0 mi South 15.0 mph - N/A   Clear
11:15 AM 48.7 °F - 22.1 °F 35% 30.01 in 10.0 mi South 12.7 mph 16.1 mph N/A   Clear
11:35 AM 50.0 °F - 22.1 °F 33% 30.00 in 10.0 mi South 11.5 mph 17.3 mph N/A   Clear
11:55 AM 51.1 °F - 23.4 °F 34% 29.97 in 10.0 mi South 19.6 mph 25.3 mph N/A   Clear
12:15 PM 53.8 °F - 23.9 °F 31% 29.97 in 10.0 mi SSW 11.5 mph 23.0 mph N/A   Clear
12:35 PM 55.0 °F - 24.1 °F 30% 29.96 in 10.0 mi South 11.5 mph - N/A   Clear
12:55 PM 55.0 °F - 24.3 °F 30% 29.94 in 10.0 mi South 16.1 mph 19.6 mph N/A   Clear
1:15 PM 56.5 °F - 24.6 °F 29% 29.92 in 10.0 mi SSW 19.6 mph - N/A   Clear
1:35 PM 57.9 °F - 24.6 °F 28% 29.91 in 10.0 mi South 19.6 mph 26.5 mph N/A   Clear
2:15 PM 58.6 °F - 26.1 °F 29% 29.89 in 10.0 mi South 21.9 mph 25.3 mph N/A   Clear
2:35 PM 59.5 °F - 26.1 °F 28% 29.87 in 10.0 mi South 20.7 mph 28.8 mph N/A   Clear
2:55 PM 59.2 °F - 25.2 °F 27% 29.85 in 10.0 mi South 20.7 mph 26.5 mph N/A   Clear
3:15 PM 60.6 °F - 25.3 °F 26% 29.84 in 10.0 mi South 18.4 mph - N/A   Clear
3:35 PM 61.0 °F - 25.3 °F 26% 29.84 in 10.0 mi South 21.9 mph 25.3 mph N/A   Clear
3:55 PM 60.3 °F - 25.5 °F 27% 29.84 in 10.0 mi South 18.4 mph 25.3 mph N/A   Clear
4:15 PM 59.9 °F - 25.5 °F 27% 29.83 in 10.0 mi South 18.4 mph 23.0 mph N/A   Clear
4:35 PM 58.8 °F - 25.2 °F 28% 29.83 in 10.0 mi South 18.4 mph 24.2 mph N/A   Clear
4:55 PM 59.0 °F - 25.5 °F 28% 29.82 in 10.0 mi South 18.4 mph - N/A   Clear
5:15 PM 59.0 °F - 25.2 °F 27% 29.82 in 10.0 mi South 16.1 mph 25.3 mph N/A   Clear
5:35 PM 58.1 °F - 24.8 °F 28% 29.83 in 10.0 mi South 10.4 mph 20.7 mph N/A   Clear
5:55 PM 57.4 °F - 24.8 °F 29% 29.83 in 10.0 mi South 9.2 mph - N/A   Clear
6:15 PM 57.6 °F - 24.3 °F 28% 29.83 in 10.0 mi South 12.7 mph 19.6 mph N/A   Clear
6:35 PM 56.3 °F - 23.9 °F 29% 29.82 in 10.0 mi SSE 11.5 mph - N/A   Clear
6:55 PM 55.9 °F - 23.9 °F 29% 29.82 in 10.0 mi South 10.4 mph - N/A   Clear
7:15 PM 55.9 °F - 24.1 °F 29% 29.81 in 10.0 mi South 15.0 mph - N/A   Clear
7:35 PM 55.6 °F - 23.9 °F 29% 29.80 in 10.0 mi South 17.3 mph - N/A   Scattered Clouds
7:55 PM 55.4 °F - 23.5 °F 29% 29.80 in 10.0 mi South 16.1 mph - N/A   Scattered Clouds
8:15 PM 55.0 °F - 23.0 °F 29% 29.81 in 10.0 mi South 18.4 mph - N/A   Clear
8:35 PM 54.9 °F - 23.0 °F 29% 29.81 in 10.0 mi South 18.4 mph 21.9 mph N/A   Clear
8:55 PM 54.5 °F - 23.0 °F 29% 29.82 in 10.0 mi South 16.1 mph - N/A   Clear
9:15 PM 53.8 °F - 22.8 °F 30% 29.82 in 10.0 mi South 15.0 mph 19.6 mph N/A   Clear
9:35 PM 52.7 °F - 22.8 °F 31% 29.82 in 10.0 mi South 11.5 mph - N/A   Scattered Clouds
9:55 PM 52.7 °F - 23.0 °F 31% 29.82 in 10.0 mi South 12.7 mph - N/A   Scattered Clouds
10:15 PM 52.2 °F - 23.0 °F 32% 29.82 in 10.0 mi South 10.4 mph - N/A   Clear
10:35 PM 52.2 °F - 23.0 °F 32% 29.82 in 10.0 mi South 6.9 mph - N/A   Clear
10:55 PM 52.2 °F - 23.0 °F 32% 29.82 in 10.0 mi SSW 6.9 mph - N/A   Clear
11:15 PM 52.0 °F - 23.0 °F 32% 29.81 in 10.0 mi South 6.9 mph - N/A   Clear
11:35 PM 52.0 °F - 22.8 °F 32% 29.80 in 10.0 mi South 10.4 mph 16.1 mph N/A   Clear
11:55 PM 52.7 °F - 22.6 °F 31% 29.81 in 10.0 mi SW 10.4 mph - N/A   Clear